Location: Aalen
(48.8330°N, 10.1000°E)
Time: 05:40:50
(UTC+02:00)

EO-79 - Visible Passes

Search period start: 29 March 2023 00:00
Search period end: 08 April 2023 00:00
Orbit: 581 x 596 km, 98.0° (Epoch: 28 March)

Date Brightness Start Highest point End Pass type
(mag) Time Alt. Az. Time Alt. Az. Time Alt. Az.
29 Mar ? 02:39:38 10° NE 02:40:33 14° NE 02:40:33 14° NE visible
29 Mar ? 04:14:34 10° N 04:17:04 30° NNW 04:17:04 30° NNW visible
30 Mar ? 02:47:01 10° NE 02:48:19 17° NE 02:48:19 17° NE visible
30 Mar ? 04:22:13 10° N 04:24:50 29° NNW 04:24:50 29° NNW visible
31 Mar ? 02:54:25 10° NE 02:56:04 20° NE 02:56:04 20° NE visible
31 Mar ? 04:29:53 10° N 04:32:35 27° NW 04:32:35 27° NW visible
01 Apr ? 03:01:51 10° NNE 03:03:48 23° NE 03:03:48 23° NE visible
01 Apr ? 04:37:33 10° N 04:40:19 25° NW 04:40:19 25° NW visible
02 Apr ? 03:09:16 10° NNE 03:11:31 27° NE 03:11:31 27° NE visible
02 Apr ? 04:45:13 10° NNW 04:48:02 22° NW 04:48:02 22° NW visible
03 Apr ? 03:16:42 10° NNE 03:19:13 32° NE 03:19:13 32° NE visible
03 Apr ? 04:52:54 10° NNW 04:55:44 19° WNW 04:55:44 19° WNW visible
04 Apr ? 03:24:09 10° NNE 03:26:54 38° NE 03:26:54 38° NE visible
04 Apr ? 05:00:37 10° NNW 05:03:19 17° WNW 05:03:25 17° WNW visible
05 Apr ? 03:31:36 10° NNE 03:34:34 45° NNE 03:34:34 45° NNE visible
05 Apr ? 05:08:22 10° NNW 05:10:41 15° WNW 05:11:05 15° WNW visible
06 Apr ? 03:39:02 10° NNE 03:42:13 52° NNE 03:42:13 52° NNE visible
06 Apr ? 05:16:12 10° NNW 05:18:03 13° WNW 05:18:44 12° WNW visible
07 Apr ? 03:46:29 10° NNE 03:49:51 58° N 03:49:51 58° N visible
07 Apr ? 05:24:15 10° NW 05:25:23 11° NW 05:26:22 10° WNW visible
